Location: Canet
(43.3261°N, 5.3723°E)
Time: 19:35:44
(UTC+00:00)

Lacrosse 5 - Pass Details

Date: 24 January 2021
Orbit: 715 x 724 km, 57.0° (Epoch: 07 March)

Event Time Altitude Azimuth Distance (km) Brightness Sun altitude
Rises 17:27:53 0° 312° (NW) 3,122 5.6 -8.9°
Reaches altitude 10° 17:30:16 10° 312° (NW) 2,199 4.8 -9.3°
Maximum altitude 17:35:20 86° 226° (SW) 721 1.9 -10.2°
Drops below altitude 10° 17:40:24 10° 136° (SE) 2,190 4.1 -11.1°
Sets 17:42:46 0° 136° (SE) 3,108 4.9 -11.5°
